Погода в Кировограде

Погода в Кировограде : погода сейчас, прогноз погоды и архив. Всё, что Вы хотите узнать о погоде в Кировограде!

Хотите узнать прогноз погоды в Кировограде? Тогда Вам сюда: Погода в Кировограде

Поиск расширенной информации на нашем сайте:

Другие новости

Новости СМИ2

Главная страница сайта

Новости сайта

03.07.2017

Напоминаем, что на нашем специализированном сайте Метеоцентр.Азия вы можете получить высокодетализированные автоматические прогнозы погоды по пунктам России, СНГ и мира в авиационном формате (включающие направление и скорость ветра, видимость, явления погоды, количество и форму облачности, нижнюю и верхнюю границу облачности).


Погода в Кировограде - сегодня

Время (UTC), дата Ветер
(°,м/с) 
Видим.   Явления Облачность Т
(°С)
Тd
(°С)
f(%) Тe
(°С)
Pmin
(гПа)
dP
(гПа)
Po
(мм)
O2
(г/м3)
Тmin Tmax R s Состояние
почвы
21 17.08.18 050 (СВ) 10 км    ясно 
+24 +14.8 56 +32  1015.2  0.2  747  274           
00 18.08.18 070 (В) 10 км    ясно 
+22.4 +15 63 +31  1015.4  0.1  747  275           
03 18.08.18 060 (СВ) 20000 м    ясно 
+20 +14.5 71 +28  1016.2  0.6  747  278           
06 18.08.18 090 (В) 20000 м    ясно 
+23.5 +16.1 63 +34  1016.9  0.9  748  274  +19.7         
09 18.08.18 090 (В) 20000 м    ясно 
+29.3 +14.5 40 +37  1016.7  0.2  748  269           
12 18.08.18 030 (СВ) 20000 м    1/1 1500 м 
[Cu hum]
+31.8 +14.1 34 +39  1016.2  -0.4  748  267           
15 18.08.18 050 (СВ) 20000 м    ясно 
+30.3 +15.3 40 +40  1015.6  -0.6  747  268           
18 18.08.18 060 (СВ) 10 км    3/0 верхняя 
[Ci fib]
+25 +14.5 52 +33  1017.4  1.4  748  273    +32.3       
21 18.08.18 080 (В) 10 км    4/0 средняя 
[Ac trans]
+21 +11.7 55 +25  1018.4  0.7  749  278           
00 19.08.18 тихо ()   10 км  зарница  5/3 1000 м кучево-дожд., средняя 
[Cb calv|Ac trans]
+19.2 +11.2 60 +22  1019  0.4  749  280           
03 19.08.18 080 (В) 20000 м    10/0 средняя, верхняя 
[Ac trans|Ci fib]
+16.4 +11.4 72 +20  1019.2  749  283           
06 19.08.18 130 (ЮВ) 20000 м    10/0 средняя, верхняя 
[Ac trans|Ci fib]
+22 +11.5 51 +25  1019.3  0.5  750  277  +16         
09 19.08.18 060 (СВ) 20000 м    6/0 средняя, верхняя 
[Ac trans|Ci fib]
+27 +8.7 32 +27  1018.9  -0.1  749  273           
12 19.08.18 070 (В) 20000 м    10/0 верхняя 
[Ci fib]
+29.6 +6.7 24 +30  1017.9  -0.8  749  271           
15 19.08.18 140 (ЮВ) 20000 м    8/0 верхняя 
[Ci fib]
+29.1 +5.8 23 +29  1016.8  -1.1  748  271           
18 19.08.18 060 (СВ) 10 км  зарница  10/3 1000 м кучево-дожд., верхняя 
[Cb calv|Ci fib]
+23.2 +8.6 39 +23  1017.8  0.6  749  277           
21 19.08.18 120 (ЮВ) 10 км    10/0 верхняя 
[Ci fib]
+19 +7.2 46 +20  1018.4  0.3  749  281           
00 20.08.18 120 (ЮВ) 10 км    ясно 
+17.1 +6.9 51 +18  1018.1  -0.4  748  283           
03 20.08.18 130 (ЮВ) 20000 м    4/0 средняя, верхняя 
[Ac trans|Ci fib]
+15.2 +7.6 60 +15  1018.5  0.3  749  284           
06 20.08.18 130 (ЮВ) 20000 м    9/0 средняя, верхняя 
[Ac trans|Ci fib]
+20.7 +9.5 49 +21  1018.5  0.3  749  279  +14.5         
09 20.08.18 190 (Ю) 20000 м    10/0 верхняя 
[Ci fib]
+26.1 +8.4 33 +26  1017.9  -0.2  749  274           
12 20.08.18 210 (ЮЗ) 20000 м    5/0 верхняя 
[Ci fib]
+28.3 +7.6 27 +28  1016.6  -1.1  748  272           
15 20.08.18 тихо ()   20000 м    5/0 средняя, верхняя 
[Ac trans|Ci fib]
+28.8 +8.8 29 +29  1015.5  -1.1  747  271           
18 20.08.18 150 (ЮВ) 10 км    3/0 верхняя 
[Ci fib]
+23.6 +10 42 +25  1015.7  -0.1  747  275    +30       
21 20.08.18 150 (ЮВ) 10 км    ясно 
+18.8 +7.7 48 +19  1016.1  747  280           
Время (UTC), дата Ветер
(°,м/с) 
Видим.   Явления Облачность Т
(°С)
Тd
(°С)
f(%) Тe
(°С)
Pmin
(гПа)
dP
(гПа)
Po
(мм)
O2
(г/м3)
Тmin Tmax R s Состояние
почвы

Для получения пояснительной информации подведите курсор к названию столбца.

ПОГОДА в Кировограде - архив

Всё, что Вы хотите узнать о погоде в Кировограде - удобно и подробно!

Выберите нужную дату (начиная с 1 января 2015* года) и нажмите кнопку "Найти".
Будут отображены архивные сводки погоды по пункту Кировоград, начиная с указанной даты.


Отображать данные в формате CSV (для использования в таблицах Excel)


Внимание! Наш архив погоды предназначен исключительно для личного некоммерческого использования в познавательных целях. Если Вам необходимы официальные справки о состоянии погоды (для производственных, юридических, коммерческих и т.п. целей), обращайтесь в органы Росгидромета.

*Примечание: данная дата относится к архиву по метеостанциям СССР (Россия, СНГ, Балтия).
Архив по метеостанциям Зарубежной Европы и Азии (кроме Китая) хранится 10 дней, по другим регионам земного шара (Китай, Африка, Америка, Австралия, Океания) - 1 день.

Кировоград - район местоположения метеостанции


Название, широта, долгота, высота метеостанции:
Кировоград 48.5°ш. 32.2°д. 171 м над ур. моря [Украина]

Дополнительная информация

В oтличие oт бoльшинства пoгoдных сайтoв мы публикуем пoдрoбную метеoинфoрмацию в детальнoм прoфессиoнальнoм фoрмате.

Характеристики температуры и влажнoсти вoздуха измеряются на высoте 2 м в тени вдали oт зданий и деревьев.
Скoрoсть ветра измеряется на высoте 10 м (на урoвне рoста челoвека скoрoсть ветра ниже в 1.5-2 раза). Если метеoстанция нахoдится в гoрoде или в лесу, тo скoрoсть ветра занижена на 2-4 м/с пo сравнению с oткрытым местoм. Скoрoсть ветра над акватoриями крупных рек и oзёр, а также на вершинах хoлмoв на 2-5 м/с выше, чем в oбычных услoвиях.
Атмoсфернoе давление в разных тoчках местнoсти мoжет значительнo oтличаться oт давления на метеoстанции, в зависимoсти oт услoвий рельефа (при пoдъёме на 10 м давление пoнижается примернo на 1 мм рт.ст.).